Language selection

Weather shortcuts

South-central Hudson - eastern half: Past 24 Hour Conditions

 

Arviat Airport

03:00 PM CST 22 February 2024
Disclaimer

This table is a summary of hourly weather conditions for the past 24 hours.
Please note that these observations might not always be representative of weather conditions over their associated marine area.

Date / Time
(CST)
Wind(knots) Conditions Visibility(km) Pressure(kPa) Air tempC) Relative humidity(%) Dew pointC) Wind Chill
22 February 2024
15:00 NNW 29 Blowing Snow 0.2 101.6 -28 73 -32 -47
14:00 NNW 24 gusts 30 Blowing Snow 0.2 101.6 -29 72 -32 -47
13:00 NNW 21 gusts 27 Blowing Snow 0.4 101.6 -29 71 -33 -47
12:00 NNW 21 gusts 26 Blowing Snow 0.2 101.6 -31 70 -34 -48
11:00 NNW 19 Blowing Snow 0.8 101.6 -32 69 -36 -49
10:00 NNW 19 Blowing Snow 0.8 101.6 -33 68 -37 -51
9:00 NNW 22 Blowing Snow 0.8 101.6 -34 68 -38 -53
8:00 NNW 15 gusts 20 Ice Crystals 6 101.6 -35 66 -39 -52
7:00 NW 17 Ice Crystals 24 101.6 -35 66 -39 -53
6:00 NW 15 Clear 11 101.6 -36 65 -41 -53
5:00 NNW 16 Haze 2 101.6 -37 65 -41 -55
4:00 NNW 17 Clear 16 101.6 -37 64 -42 -56
3:00 NW 14 Clear 16 101.7 -38 64 -42 -55
2:00 NNW 13 Clear 16 101.7 -38 64 -42 -54
1:00 NNW 12 gusts 17 Clear 16 101.7 -38 64 -42 -54
0:00 NNW 11 Clear 16 101.7 -37 65 -41 -53
21 February 2024
23:00 NNW 13 Clear 16 101.7 -37 65 -42 -54
22:00 NW 11 Clear 16 101.7 -37 65 -41 -52
21:00 NW 12 Clear 16 101.7 -37 66 -41 -52
20:00 NW 9 Clear 16 101.6 -36 67 -40 -50
19:00 NNW 9 Clear 16 101.6 -35 67 -39 -49
18:00 NNW 6 Clear 16 101.7 -35 68 -39 -46
17:00 NNW 8 Sunny 24 101.7 -34 67 -38 -46
16:00 NNW 7 Sunny 24 101.7 -33 66 -38 -45
15:00 NW 5 Sunny 24 101.7 -33 66 -37 -43

Zoom-in to make a selection

Map of Hudson - Hudson Bay marine weather areas Arviat Airport Baker Lake Airport Chesterfield Inlet Airport Coral Harbour Airport Rankin Inlet Airport Sanikiluaq Airport Whale Cove Airport Kinngait (Cape Dorset Airport) Iqaluit Airport Wager Bay Kimmirut Airport Churchill Airport Fort Severn Airport Peawanuck Airport Moosonee Airport Eastmain Airport La Grande Rivière Airport Waskaganish Airport Wemindji Airport Akulivik Airport Inukjuak Airport Ivujivik Airport Kuujjuarapik Airport Puvirnituq Airport Umiujaq Airport Aupaluk Airport Kangiqsujuaq Airport Kangirsuk Airport Kangiqsualujjuaq Airport Kuujjuaq Airport Quaqtaq Airport Salluit Airport Tasiujaq Airport Cape Kakkiviak
Legend:
buoy Buoy
land station Land Station

Hudson - Hudson Bay Area

Another Region

Date modified: